Location: Il Ritiro
(43.4167°N, 13.1333°E)
Time: 17:13:10
(UTC+00:00)

Cosmos 773 Rocket - Pass Details

Date: 05 July 2020
Orbit: 746 x 776 km, 74.1° (Epoch: 11 August)

Event Time Altitude Azimuth Distance (km) Brightness Sun altitude
Exits shadow 20:49:11 - 208° (SSW) 3,167 6.9 -16.2°
Reaches altitude 10° 20:51:24 10° 211° (SSW) 2,319 6.2 -16.4°
Maximum altitude 20:56:37 64° 292° (WNW) 860 4.4 -16.9°
Drops below altitude 10° 21:01:54 10° 15° (NNE) 2,330 7.1 -17.4°
Sets 21:04:19 0° 18° (NNE) 3,259 7.9 -17.7°
